TimeCST,TemperatureF,Dew PointF,Humidity,Sea Level PressureIn,VisibilityMPH,Wind Direction,Wind SpeedMPH,Gust SpeedMPH,PrecipitationIn,Events,Conditions,WindDirDegrees,DateUTC
12:44 AM,42.8,42.8,100,29.78,5.0,South,3.5,-,0.01,,Overcast,180,2013-02-13 06:44:00
12:53 AM,43.0,42.1,97,29.77,5.0,Calm,Calm,-,0.01,,Overcast,0,2013-02-13 06:53:00
1:53 AM,44.1,35.1,71,29.76,4.0,Calm,Calm,-,0.01,,Haze,0,2013-02-13 07:53:00
2:38 AM,44.6,-9999,N/A,29.75,2.5,WSW,3.5,-,N/A,,Overcast,250,2013-02-13 08:38:00
2:50 AM,44.6,-9999,N/A,29.75,3.0,WSW,3.5,-,N/A,,Overcast,250,2013-02-13 08:50:00
2:53 AM,44.1,-9999,N/A,29.75,3.0,WSW,3.5,-,N/A,,Overcast,250,2013-02-13 08:53:00
3:53 AM,44.1,-9999,N/A,29.76,4.0,WNW,5.8,-,0.01,,Haze,290,2013-02-13 09:53:00
4:53 AM,44.1,32.0,63,29.80,3.0,West,6.9,-,N/A,,Haze,280,2013-02-13 10:53:00
5:22 AM,44.6,32.0,61,29.80,10.0,West,8.1,-,N/A,,Overcast,280,2013-02-13 11:22:00
5:53 AM,44.1,32.0,63,29.81,10.0,WNW,5.8,-,N/A,,Overcast,290,2013-02-13 11:53:00
6:53 AM,45.0,30.9,58,29.84,10.0,West,5.8,-,N/A,,Overcast,280,2013-02-13 12:53:00
7:53 AM,45.0,30.9,58,29.87,10.0,NW,9.2,-,N/A,,Overcast,320,2013-02-13 13:53:00
8:12 AM,44.6,30.2,57,29.89,10.0,WNW,6.9,-,N/A,,Overcast,300,2013-02-13 14:12:00
8:41 AM,44.6,28.4,53,29.90,10.0,NNW,6.9,-,N/A,,Overcast,330,2013-02-13 14:41:00
8:53 AM,44.1,28.9,55,29.91,10.0,NNW,11.5,-,N/A,,Overcast,340,2013-02-13 14:53:00
9:53 AM,43.0,28.9,58,29.93,10.0,North,12.7,19.6,N/A,,Overcast,350,2013-02-13 15:53:00
10:53 AM,43.0,28.9,58,29.96,10.0,NNW,11.5,16.1,N/A,,Overcast,330,2013-02-13 16:53:00
11:53 AM,43.0,30.9,62,29.96,10.0,NNW,9.2,-,N/A,,Overcast,340,2013-02-13 17:53:00
12:07 PM,42.8,30.2,61,29.95,10.0,North,10.4,-,N/A,,Overcast,360,2013-02-13 18:07:00
12:53 PM,44.1,34.0,68,29.96,10.0,North,12.7,17.3,N/A,,Overcast,350,2013-02-13 18:53:00
1:53 PM,45.0,35.1,68,29.97,10.0,North,9.2,-,N/A,,Overcast,350,2013-02-13 19:53:00
2:53 PM,44.1,35.1,71,29.98,10.0,North,10.4,20.7,N/A,,Overcast,360,2013-02-13 20:53:00
3:53 PM,44.1,35.1,71,29.99,10.0,North,4.6,-,N/A,,Overcast,360,2013-02-13 21:53:00
4:53 PM,44.1,35.1,71,29.99,10.0,NW,5.8,-,N/A,,Overcast,320,2013-02-13 22:53:00
5:32 PM,42.8,33.8,70,30.00,10.0,North,4.6,-,N/A,,Scattered Clouds,350,2013-02-13 23:32:00
5:53 PM,42.1,34.0,73,30.00,10.0,NW,3.5,-,N/A,,Mostly Cloudy,310,2013-02-13 23:53:00
6:53 PM,43.0,36.0,76,30.03,10.0,Calm,Calm,-,N/A,,Overcast,0,2013-02-14 00:53:00
7:53 PM,43.0,37.0,80,30.04,10.0,Calm,Calm,-,N/A,,Overcast,0,2013-02-14 01:53:00
8:53 PM,43.0,37.0,80,30.05,10.0,Calm,Calm,-,N/A,,Overcast,0,2013-02-14 02:53:00
9:53 PM,43.0,37.0,80,30.06,10.0,Calm,Calm,-,N/A,,Overcast,0,2013-02-14 03:53:00
10:53 PM,42.1,36.0,79,30.07,10.0,Calm,Calm,-,N/A,,Mostly Cloudy,0,2013-02-14 04:53:00
11:07 PM,39.2,35.6,87,30.07,10.0,SSW,4.6,-,N/A,,Scattered Clouds,210,2013-02-14 05:07:00
11:53 PM,37.9,35.1,89,30.07,10.0,Calm,Calm,-,N/A,,Clear,0,2013-02-14 05:53:00